Regional Weather Roundup
Issued by NWS

Home | Current Version | Previous Version | Graphics & Text | Print | Product List | Glossary On
Versions: 1 2 3 4 5 6 7 8 9 10 11 12 13 14 15 16 17 18 19 20 21 22 23 24 25 26 27 28 29 30 31 32 33 34 35 36 37 38 39 40 41 42 43 44 45 46 47 48 49 50
053
ASUS43 KLOT 300808
RWRIL

ILLINOIS REGIONAL WEATHER ROUNDUP
NATIONAL WEATHER SERVICE CHICAGO/ROMEOVILLE IL
300 AM CDT MON MAY 30 2016

NOTE: "FAIR" INDICATES FEW OR NO CLOUDS BELOW 12,000 FEET WITH NO
SIGNIFICANT WEATHER AND/OR OBSTRUCTIONS TO VISIBILITY.

* THESE STATIONS ARE NOT UNDER NWS QUALITY CONTROL. THEY ALSO MAY NOT
  REPORT WEATHER SUCH AS PRECIPITATION OR FOG.

ILZ001-002-007-009-015-016-024-300900-
NORTHWEST ILLINOIS

CITY           SKY/WX    TMP DP  RH WIND       PRES   REMARKS
MOLINE         PTCLDY    67  57  70 CALM      30.01R
STERLING*      CLOUDY    62  61  96 CALM      30.02R
SAVANNA*       CLOUDY    64  62  93 CALM      30.00S
$$

ILZ003-004-008-010-011-017-018-300900-
NORTH CENTRAL ILLINOIS

CITY           SKY/WX    TMP DP  RH WIND       PRES   REMARKS
ROCKFORD       PTCLDY    65  60  84 CALM      30.03S
FREEPORT*      MOCLDY    64  58  82 W3        30.02S
ROCHELLE*      CLOUDY    65  59  81 NW5       30.02F
DE KALB*       MOCLDY    64  59  84 W5        30.02S
$$

ILZ005-006-012>014-019>023-300900-
NORTHEAST ILLINOIS

CITY           SKY/WX    TMP DP  RH WIND       PRES   REMARKS
CHICAGO-OHARE  CLEAR     66  57  72 W6        30.00S
CHICAGO-MIDWAY PTCLDY    67  57  70 W5        30.00S
AURORA         PTCLDY    62  59  90 CALM      30.01S
LANSING*       CLEAR     64  56  76 CALM      30.01S
JOLIET*        CLEAR     60  58  96 CALM      30.01F
WAUKEGAN       CLEAR     63  57  81 CALM      29.98F
DUPAGE AIRPORT CLEAR     60  56  86 CALM      30.00S
KANKAKEE*      CLEAR     61  56  85 CALM      30.03S
WHEELING       CLEAR     67  56  67 CALM      30.01S
MORRIS*        CLEAR     64  56  75 CALM      30.00F
ROMEOVILLE*    CLEAR     64  54  71 CALM      30.01S
NORTHERLY ISL    N/A     70  55  59 W5          N/A
NORTHERLY ISL    N/A     70  55  59 W5          N/A
$$

LMZ740>746-300900-
SOUTHERN LAKE MICHIGAN

STATION/POSITION SKY/WX   TEMP    WIND        PRES    VSBY  WAVE
                          AIR SEA DIR/SP/G                  HT/PER
                          (F)     (DEG/KT/KT) (MB)    (MI)  (FT/S)
SOUTHERN BUOY              58 51  240/  8/  8 1014.7F         0
WILMETTE HARBOR            60 56  260/  4/  6   N/A           0
HARRISON CRIB              74     270/ 13/ 14   N/A
BURNHAM HARBOR             71     270/  3/  6   N/A
CALUMET HARBOR             70     230/  6/  8 1015.5S
BURNS HARBOR               67     200/  6/  8 1016.3S
MICHIGAN CITY              69     180/  8/  9   N/A
MICHIGAN CITY 6N           62 59  220/  6/  8   N/A           1
ST. JOSEPH                 64 62  220/  6/ 10   N/A           1
$$

ILZ025>027-034>036-040-047-049-050-058-095>099-300900-
WEST-CENTRAL ILLINOIS

CITY           SKY/WX    TMP DP  RH WIND       PRES   REMARKS
QUINCY         CLOUDY    65  62  90 S5        30.03F
GALESBURG*     MOCLDY    61  58  90 CALM      30.03S
MACOMB*        CLOUDY    65  61  86 W5        30.05S
JACKSONVILLE*  CLOUDY    66  62  85 SW3       30.04F
PITTSFIELD*    CLOUDY    65  63  93 CALM      30.05F
$$

ILZ028>032-037-038-041>044-048-051>054-059>061-300900-
CENTRAL ILLINOIS

CITY           SKY/WX    TMP DP  RH WIND       PRES   REMARKS
PONTIAC        PTCLDY    62  59  89 CALM      30.03S
BLOOMINGTON    CLOUDY    68  60  75 NW6       30.05S
DECATUR        PTCLDY    62  57  83 CALM      30.05R
PEORIA         CLOUDY    64  57  78 CALM      30.04R
LACON*         PTCLDY    60  57  89 CALM      30.02S
LINCOLN*       CLOUDY    64  60  87 CALM      30.04S
SPRINGFIELD    CLOUDY    64  60  87 CALM      30.04S
TAYLORVILLE    CLOUDY    63  60  93 CALM      30.05S
$$

ILZ033-039-045-046-055>057-062-063-300900-
EAST-CENTRAL ILLINOIS

CITY           SKY/WX    TMP DP  RH WIND       PRES   REMARKS
CHAMPAIGN      CLOUDY    65  57  75 CALM      30.04S
RANTOUL*       CLOUDY    66  60  82 CALM      30.04S
MATTOON        CLOUDY    64  56  75 CALM      30.04R
PARIS*         CLEAR     61  59  94 CALM      30.05S
$$

ILZ079-100>102-300900-
SOUTHWEST ILLINOIS

CITY           SKY/WX    TMP DP  RH WIND       PRES   REMARKS
ALTON          CLOUDY    63  61  93 CALM      30.05F
BELLEVILLE     CLOUDY    65  65  99 CALM      30.04S
CAHOKIA*       PTCLDY    65  62  90 CALM      30.04F
SPARTA*        CLEAR     68  63  85 CALM      30.06S
$$

ILZ064>066-069>071-074>076-080>082-084>086-088>090-092>094-300900-
SOUTH-CENTRAL ILLINOIS

CITY           SKY/WX    TMP DP  RH WIND       PRES   REMARKS
CARBONDALE     CLEAR     63  60  90 CALM      30.05S
CAIRO*         PTCLDY    64  64  99 CALM      30.04F
EFFINGHAM*     PTCLDY    63  63 100 CALM      30.07R
MARION         FOG       64  64 100 CALM      30.06S VSB 3/4
MT. VERNON     CLOUDY    59  55  88 CALM      30.06S VSB 3/4
CENTRALIA*     PTCLDY    64  64  97 CALM      30.05R
SALEM*         CLOUDY    67  64  90 CALM      30.05S
METROPOLIS*    CLEAR     63  63 100 CALM      30.05S
$$

ILZ067-068-072-073-078-083-087-091-300900-
SOUTHEAST ILLINOIS

CITY           SKY/WX    TMP DP  RH WIND       PRES   REMARKS
LAWRENCEVILLE  CLOUDY    66  63  90 CALM      30.04S
FLORA*         CLOUDY    64  62  92 CALM      30.05R
FAIRFIELD*     CLEAR     64  64  99 CALM      30.05R
HARRISBURG*    CLEAR     64  64  98 CALM      30.06R
ROBINSON*      CLOUDY    59  59  97 CALM      30.05S
CARMI*         CLEAR     64  63  97 CALM      30.04S
$$

ABBREVIATIONS USED IN REMARKS
   TC - TEMPERATURE IN CELSIUS
  WCI - WIND CHILL INDEX
   HX - HEAT INDEX
  VSB - VISIBILITY
$$





USA.gov is the U.S. government's official web portal to all federal, state and local government web resources and services.